ECHOSTAR 3

Last updated on Mon Sep 04 2017 00:18:16 GMT+0000 (Coordinated Universal Time)

1 25004U 97059A 17245.69990648 -.00000065 00000-0 00000-0 0 9993 2 25004 2.3145 74.8099 0004138 257.1897 103.2687 0.98875296 72875
UTC large
Height (km)
Speed (km/s)
/
Latitude / Longitude
Inclination (degrees)
Orbital Period (minutes)
Azimuth
Elevation
Range (km)
Doppler Factor

Next 0 passes for location: London (51.5072 / 0.1276)

Sorry there are no passes over London.